Time,TemperatureF,DewpointF,PressureIn,WindDirection,WindDirectionDegrees,WindSpeedMPH,WindSpeedGustMPH,Humidity,HourlyPrecipIn,Conditions,Clouds,dailyrainin,SoftwareType,DateUTC
2013-01-19 00:16:00,27.0,15.0,30.32,South,169,2.0,-999.0,61,-99.99,,,0.00,weatherlink.com 1.10,2013-01-19 05:16:00,
2013-01-19 00:31:00,27.2,15.0,30.32,SSW,195,1.0,-999.0,60,-99.99,,,0.00,weatherlink.com 1.10,2013-01-19 05:31:00,
2013-01-19 00:46:00,27.4,15.0,30.33,SSW,198,6.0,-999.0,60,-99.99,,,0.00,weatherlink.com 1.10,2013-01-19 05:46:00,
2013-01-19 01:01:00,27.6,15.0,30.32,South,190,2.0,-999.0,60,-99.99,,,0.00,weatherlink.com 1.10,2013-01-19 06:01:00,
2013-01-19 01:16:00,27.4,15.0,30.32,SW,219,6.0,-999.0,60,-99.99,,,0.00,weatherlink.com 1.10,2013-01-19 06:16:00,
2013-01-19 01:31:00,27.5,15.0,30.32,SSW,213,4.0,-999.0,60,-99.99,,,0.00,weatherlink.com 1.10,2013-01-19 06:31:00,
2013-01-19 01:46:00,27.8,16.0,30.31,SSW,198,5.0,-999.0,61,-99.99,,,0.00,weatherlink.com 1.10,2013-01-19 06:46:00,
2013-01-19 02:01:00,28.2,16.0,30.32,South,169,9.0,-999.0,61,-99.99,,,0.00,weatherlink.com 1.10,2013-01-19 07:01:00,
2013-01-19 02:31:00,28.7,17.0,30.30,SSW,199,4.0,-999.0,62,-99.99,,,0.00,weatherlink.com 1.10,2013-01-19 07:31:00,
2013-01-19 02:46:00,29.1,17.0,30.30,SSW,205,5.0,-999.0,62,-99.99,,,0.00,weatherlink.com 1.10,2013-01-19 07:46:00,
2013-01-19 03:01:00,29.4,19.0,30.29,South,178,1.0,-999.0,64,-99.99,,,0.00,weatherlink.com 1.10,2013-01-19 08:01:00,
2013-01-19 03:16:00,29.6,19.0,30.28,South,186,4.0,-999.0,65,-99.99,,,0.00,weatherlink.com 1.10,2013-01-19 08:16:00,
2013-01-19 03:31:00,29.8,20.0,30.28,South,189,3.0,-999.0,66,-99.99,,,0.00,weatherlink.com 1.10,2013-01-19 08:31:00,
2013-01-19 03:46:00,30.0,20.0,30.27,SSW,205,6.0,-999.0,66,-99.99,,,0.00,weatherlink.com 1.10,2013-01-19 08:46:00,
2013-01-19 04:01:00,30.1,20.0,30.26,South,171,5.0,-999.0,67,-99.99,,,0.00,weatherlink.com 1.10,2013-01-19 09:01:00,
2013-01-19 04:16:00,30.6,21.0,30.25,SW,215,7.0,-999.0,67,-99.99,,,0.00,weatherlink.com 1.10,2013-01-19 09:16:00,
2013-01-19 04:31:00,30.8,21.0,30.25,SSE,159,5.0,-999.0,66,-99.99,,,0.00,weatherlink.com 1.10,2013-01-19 09:31:00,
2013-01-19 04:46:00,30.9,21.0,30.25,South,185,6.0,-999.0,66,-99.99,,,0.00,weatherlink.com 1.10,2013-01-19 09:46:00,
2013-01-19 05:01:00,30.8,21.0,30.24,South,182,7.0,-999.0,66,-99.99,,,0.00,weatherlink.com 1.10,2013-01-19 10:01:00,
2013-01-19 05:16:00,30.9,21.0,30.24,South,182,5.0,-999.0,67,-99.99,,,0.00,weatherlink.com 1.10,2013-01-19 10:16:00,
2013-01-19 05:31:00,31.4,22.0,30.23,SSW,195,9.0,-999.0,67,-99.99,,,0.00,weatherlink.com 1.10,2013-01-19 10:31:00,
2013-01-19 05:46:00,31.9,22.0,30.24,South,173,4.0,-999.0,67,-99.99,,,0.00,weatherlink.com 1.10,2013-01-19 10:46:00,
2013-01-19 06:01:00,32.4,23.0,30.24,South,188,5.0,-999.0,68,-99.99,,,0.00,weatherlink.com 1.10,2013-01-19 11:01:00,
2013-01-19 08:01:00,34.7,27.0,30.22,South,180,6.0,-999.0,74,-99.99,,,0.00,weatherlink.com 1.10,2013-01-19 13:01:00,
2013-01-19 08:16:00,35.1,27.0,30.22,SSW,208,7.0,-999.0,73,-99.99,,,0.00,weatherlink.com 1.10,2013-01-19 13:16:00,
2013-01-19 08:31:00,35.8,28.0,30.22,South,182,9.0,-999.0,72,-99.99,,,0.00,weatherlink.com 1.10,2013-01-19 13:31:00,
2013-01-19 08:46:00,36.5,28.0,30.22,South,186,10.0,-999.0,71,-99.99,,,0.00,weatherlink.com 1.10,2013-01-19 13:46:00,
2013-01-19 09:01:00,37.4,28.0,30.22,South,185,6.0,-999.0,69,-99.99,,,0.00,weatherlink.com 1.10,2013-01-19 14:01:00,
2013-01-19 09:16:00,38.3,28.0,30.22,SSW,205,12.0,-999.0,67,-99.99,,,0.00,weatherlink.com 1.10,2013-01-19 14:16:00,
2013-01-19 09:31:00,39.2,29.0,30.21,SSW,205,10.0,-999.0,66,-99.99,,,0.00,weatherlink.com 1.10,2013-01-19 14:31:00,
2013-01-19 09:46:00,40.0,29.0,30.21,SSW,198,14.0,-999.0,64,-99.99,,,0.00,weatherlink.com 1.10,2013-01-19 14:46:00,
2013-01-19 10:01:00,40.7,28.0,30.21,SSW,208,8.0,-999.0,62,-99.99,,,0.00,weatherlink.com 1.10,2013-01-19 15:01:00,
2013-01-19 10:16:00,41.5,29.0,30.20,SSE,163,9.0,-999.0,61,-99.99,,,0.00,weatherlink.com 1.10,2013-01-19 15:16:00,
2013-01-19 10:31:00,42.7,29.0,30.19,SW,214,7.0,-999.0,59,-99.99,,,0.00,weatherlink.com 1.10,2013-01-19 15:31:00,
2013-01-19 10:46:00,43.7,29.0,30.17,SSW,192,4.0,-999.0,57,-99.99,,,0.00,weatherlink.com 1.10,2013-01-19 15:46:00,
2013-01-19 11:01:00,44.8,29.0,30.16,SW,229,8.0,-999.0,54,-99.99,,,0.00,weatherlink.com 1.10,2013-01-19 16:01:00,
2013-01-19 11:16:00,45.8,28.0,30.14,SW,224,8.0,-999.0,51,-99.99,,,0.00,weatherlink.com 1.10,2013-01-19 16:16:00,
2013-01-19 11:31:00,46.6,29.0,30.13,SSW,200,17.0,-999.0,50,-99.99,,,0.00,weatherlink.com 1.10,2013-01-19 16:31:00,
2013-01-19 11:46:00,47.6,29.0,30.12,SSW,202,16.0,-999.0,48,-99.99,,,0.00,weatherlink.com 1.10,2013-01-19 16:46:00,
2013-01-19 12:01:00,48.1,29.0,30.10,SW,218,17.0,-999.0,47,-99.99,,,0.00,weatherlink.com 1.10,2013-01-19 17:01:00,
2013-01-19 13:01:00,50.1,29.0,30.07,SSW,192,12.0,-999.0,44,-99.99,,,0.00,weatherlink.com 1.10,2013-01-19 18:01:00,
2013-01-19 13:16:00,50.9,29.0,30.06,SE,145,9.0,-999.0,44,-99.99,,,0.00,weatherlink.com 1.10,2013-01-19 18:16:00,
2013-01-19 13:31:00,51.0,29.0,30.05,SSE,165,2.0,-999.0,43,-99.99,,,0.00,weatherlink.com 1.10,2013-01-19 18:31:00,
2013-01-19 13:46:00,52.0,29.0,30.04,SSE,152,6.0,-999.0,42,-99.99,,,0.00,weatherlink.com 1.10,2013-01-19 18:46:00,
2013-01-19 14:31:00,53.3,31.0,30.02,SSW,201,3.0,-999.0,42,-99.99,,,0.00,weatherlink.com 1.10,2013-01-19 19:31:00,
2013-01-19 15:01:00,53.0,30.0,30.01,SSW,198,12.0,-999.0,41,-99.99,,,0.00,weatherlink.com 1.10,2013-01-19 20:01:00,
2013-01-19 16:31:00,52.0,29.0,29.99,SSE,162,5.0,-999.0,41,-99.99,,,0.00,weatherlink.com 1.10,2013-01-19 21:31:00,
2013-01-19 16:46:00,51.1,29.0,29.99,SSW,192,5.0,-999.0,43,-99.99,,,0.00,weatherlink.com 1.10,2013-01-19 21:46:00,
2013-01-19 17:16:00,49.5,29.0,29.98,South,186,4.0,-999.0,46,-99.99,,,0.00,weatherlink.com 1.10,2013-01-19 22:16:00,
2013-01-19 17:31:00,49.0,29.0,29.98,WSW,249,7.0,-999.0,47,-99.99,,,0.00,weatherlink.com 1.10,2013-01-19 22:31:00,
2013-01-19 17:46:00,48.7,30.0,29.99,SW,214,8.0,-999.0,48,-99.99,,,0.00,weatherlink.com 1.10,2013-01-19 22:46:00,
2013-01-19 18:01:00,48.3,29.0,29.98,South,176,2.0,-999.0,48,-99.99,,,0.00,weatherlink.com 1.10,2013-01-19 23:01:00,
2013-01-19 18:46:00,46.6,29.0,29.98,SSW,192,6.0,-999.0,51,-99.99,,,0.00,weatherlink.com 1.10,2013-01-19 23:46:00,
2013-01-19 19:46:00,45.1,29.0,29.96,SSW,194,5.0,-999.0,53,-99.99,,,0.00,weatherlink.com 1.10,2013-01-20 00:46:00,
2013-01-19 20:16:00,44.7,29.0,29.95,SSW,212,4.0,-999.0,54,-99.99,,,0.00,weatherlink.com 1.10,2013-01-20 01:16:00,
2013-01-19 20:31:00,44.5,29.0,29.94,SSW,207,5.0,-999.0,56,-99.99,,,0.00,weatherlink.com 1.10,2013-01-20 01:31:00,
2013-01-19 20:46:00,44.0,30.0,29.94,South,188,4.0,-999.0,59,-99.99,,,0.00,weatherlink.com 1.10,2013-01-20 01:46:00,
2013-01-19 21:46:00,43.0,30.0,29.92,South,174,7.0,-999.0,60,-99.99,,,0.00,weatherlink.com 1.10,2013-01-20 02:46:00,
2013-01-19 22:01:00,42.9,30.0,29.91,SSW,194,8.0,-999.0,60,-99.99,,,0.00,weatherlink.com 1.10,2013-01-20 03:01:00,
2013-01-19 22:31:00,42.5,30.0,29.90,SSW,193,5.0,-999.0,61,-99.99,,,0.00,weatherlink.com 1.10,2013-01-20 03:31:00,
2013-01-19 22:46:00,42.2,30.0,29.89,SW,223,9.0,-999.0,62,-99.99,,,0.00,weatherlink.com 1.10,2013-01-20 03:46:00,
2013-01-19 23:01:00,42.0,30.0,29.88,SSW,211,7.0,-999.0,62,-99.99,,,0.00,weatherlink.com 1.10,2013-01-20 04:01:00,
2013-01-19 23:31:00,41.8,30.0,29.87,South,178,11.0,-999.0,63,-99.99,,,0.00,weatherlink.com 1.10,2013-01-20 04:31:00,